Location: Landeleau
(48.2273°N, 3.7285°W)
Time: 12:08:20
(UTC+00:00)

CZ-2C R/B - Pass Details

Date: 30 March 2020
Orbit: 705 x 907 km, 98.1° (Epoch: 25 May)

Event Time Altitude Azimuth Distance (km) Brightness Sun altitude
Rises 19:21:36 0° 153° (SSE) 3,248 5.8 -7.1°
Reaches altitude 10° 19:23:58 10° 149° (SSE) 2,296 5.1 -7.5°
Maximum altitude 19:28:54 58° 71° (ENE) 860 3.0 -8.3°
Drops below altitude 10° 19:33:39 10° 353° (N) 2,217 5.7 -9.1°
Sets 19:35:55 0° 350° (N) 3,127 6.6 -9.4°
